Вернуться в каталог

STARLINK-30581

АктивенСвязьVLEO
NORAD 58096·PAYLOAD·🇺🇸 United States

Запущен Oct 18, 2023 с Cape Canaveral Space Force Station

Loading…

Ближайшие Пролёты (ближайшие 24 часа)

TLE

СвежийSource: CelesTrak SupGP

Эпоха: Sep 15, 2026, 03:03 UTC

1 58096C 23160X   26258.12756944  .00000717  00000+0  25969-4 0  2588
2 58096  43.0020  88.1326 0001521 259.2482 210.0257 15.27561660    15

Отслеживайте STARLINK-30581 в реальном времени с AllMySat

Download on the App Store